[[{"header":{"parameterUnit":"m.s-1","parameterCategory":1,"la1":30.2991,"la2":30.254,"lo1":-89.0895,"lo2":-89.0444,"dy":0.0017,"dx":0.0017,"nx":28,"ny":28,"refTime":"2024-10-18T03:00:00:Z","depth":0,"parameterNumber":2,"parameterNumberName":"U-component_of_WINDS"},"data":[0,0,0,0,0,0,0,0,0,0,0,0,0,0,0,0,0,0,0,0,0,0,0,0,0,0,0,0,0,0,0,0,0,0,0,0,0,0,0,0,0,0,0,0,0,0,0,0,0,0,0,0,0,0,0,0,0,0,-4.4099,-4.41,0,-4.4193,-4.4194,-4.4195,-4.4048,-4.4043,-4.4038,-4.4033,-4.4132,-4.4139,-4.4146,0,0,0,0,0,0,0,0,0,0,0,0,0,-4.3791,-4.3798,-4.4098,-4.41,-4.4101,-4.4193,-4.4194,-4.4196,-4.4049,-4.4043,-4.4036,-4.4031,-4.4129,-4.4138,-4.4147,0,0,0,0,0,0,0,0,0,0,0,0,0,-4.391,-4.38,-4.4098,-4.4039,-4.4034,-4.4193,-4.4194,-4.4196,-4.405,-4.4043,-4.4035,-4.4028,-4.4126,-4.4137,-4.4148,-4.437,0,0,-4.4182,-4.4187,0,0,0,0,0,0,0,0,-4.3903,-4.3921,-4.4046,-4.4043,-4.4038,-4.4101,-4.4122,-4.4254,-4.4052,-4.4044,-4.4033,-4.4024,-4.4128,-4.4138,-4.4173,-4.4374,-4.4379,-4.4183,-4.419,-4.4194,-4.4198,0,0,0,0,0,0,0,-4.3895,-4.3916,-4.4136,-4.4048,-4.4044,-4.4008,-4.4016,-4.4146,-4.4128,-4.4044,-4.4034,-4.4047,-4.4124,-4.4163,-4.4174,-4.438,-4.4183,-4.4192,-4.4199,-4.4204,-4.4768,-4.4776,0,0,0,0,0,0,-4.3894,-4.391,-4.4133,-4.4139,-4.395,-4.4019,-4.4029,-4.4089,-4.4126,-4.4124,-4.4053,-4.404,-4.4147,-4.4161,-4.4177,-4.4439,-4.4194,-4.4205,-4.4211,-4.476,-4.477,-4.4779,0,0,0,0,0,0,-4.3888,-4.3915,-4.4129,-4.4022,-4.4046,-4.4033,-4.4101,-4.4095,-4.4133,-4.4133,-4.4129,-4.4096,-4.4142,-4.4161,-4.4323,-4.444,-4.421,-4.422,-4.475,-4.4763,-4.4774,-4.4965,0,0,0,0,0,0,-4.388,-4.3914,-4.3998,-4.4025,-4.4052,-4.4274,-4.4109,-4.4102,-4.4152,-4.4135,-4.4172,-4.4171,-4.4137,-4.4307,-4.4334,-4.4451,-4.4228,-4.4739,-4.4756,-4.477,-4.4948,-4.4983,-4.5012,0,0,0,0,0,-4.3869,-4.4048,-4.4003,-4.4031,-4.4157,-4.4281,-4.4296,-4.4254,-4.4162,-4.4246,-4.4246,-4.4169,-4.4423,-4.4325,-4.4354,-4.4477,-4.4732,-4.4751,-4.4769,-4.4934,-4.4976,-4.5011,0,0,0,0,0,0,-4.4036,-4.4051,-4.4001,-4.4193,-4.4237,-4.4255,-4.4361,-4.43,-4.4371,-4.4352,-4.4297,-4.4307,-4.448,-4.4494,-4.4384,-4.4693,-4.4562,-4.4588,-4.4677,-4.4717,-4.4748,-4.4742,-4.4238,0,0,0,0,0,-4.4095,-4.4194,-4.4201,-4.4371,-4.4395,-4.4375,-4.4427,-4.439,-4.4433,-4.4451,-4.4463,-4.4508,-4.4598,-4.4658,-4.474,-4.4949,-4.4955,-4.5048,-4.508,-4.5106,-4.5129,-4.524,-4.5282,-4.484,-4.484,-4.484,0,0,-4.4219,-4.4239,-4.4305,-4.4405,-4.4434,-4.4538,-4.4391,-4.4507,-4.4584,-4.4469,-4.4622,-4.4632,-4.4679,-4.4865,-4.4948,-4.4882,-4.5252,-4.513,-4.5151,-4.5159,-4.5264,-4.5306,-4.5343,-4.4853,-4.4851,-4.4849,0,0,-4.4496,-4.4522,-4.4665,-4.4698,-4.4744,-4.4729,-4.4764,-4.4792,-4.4794,-4.4947,-4.4863,-4.4953,-4.5109,-4.5145,-4.5185,-4.5477,-4.5409,-4.5505,-4.5672,-4.5781,-4.5816,-4.5847,-4.5951,-4.5989,-4.5528,-4.5528,-4.5528,0,-4.4644,-4.4797,-4.4747,-4.487,-4.4916,-4.4816,-4.4962,-4.4996,-4.5067,-4.5102,-4.5027,-4.522,-4.5245,-4.5438,-4.5509,-4.5544,-4.5582,-4.5501,-4.5815,-4.5845,-4.5873,-4.5972,-4.6011,-4.554,-4.5538,-4.5537,-4.5536,0,-4.4976,-4.5084,-4.5194,-4.5265,-4.5324,-4.5458,-4.5429,-4.5494,-4.5453,-4.5446,-4.5603,-4.5629,-4.5715,-4.5757,-4.5718,-4.5946,-4.5904,-4.5824,-4.5691,-4.5927,-4.6019,-4.6057,-4.5556,-4.5552,-4.5548,-4.5546,0,0,-4.5363,-4.5404,-4.5445,-4.5476,-4.552,-4.5602,-4.5731,-4.5814,-4.5872,-4.5925,-4.6032,-4.6165,-4.6091,-4.6136,-4.61,-4.6196,-4.6426,-4.6103,-4.6103,-4.6163,-4.6679,-4.674,-4.6784,-4.6381,-4.6388,-4.6393,-4.6675,0,-4.564,-4.5862,-4.5821,-4.6037,-4.6136,-4.6042,-4.6154,-4.6194,-4.6191,-4.6274,-4.627,-4.6367,-4.6261,-4.6287,-4.6378,-4.6379,-4.6529,-4.6358,-4.648,-4.6485,-4.6472,-4.6832,-4.6897,-4.7161,-4.671,-4.6717,-4.6721,0,-4.5993,-4.6058,-4.6284,-4.6312,-4.6352,-4.6453,-4.6526,-4.6607,-4.665,-4.6641,-4.6691,-4.6637,-4.6766,-4.6631,-4.6808,-4.6693,-4.674,-4.6748,-4.6758,-4.6768,-4.6618,-4.6853,-4.7245,-4.7285,-4.6777,-4.6773,-4.6769,0,-4.6252,-4.6396,-4.655,-4.658,-4.6616,-4.6689,-4.6708,-4.6743,-4.6796,-4.686,-4.6894,-4.6973,-4.7016,-4.7079,-4.7047,-4.6952,-4.723,-4.7093,-4.7227,-4.7228,-4.729,-4.7287,-4.7696,-4.7321,-4.732,-4.732,-4.7319,0,-4.6566,-4.6708,-4.6667,-4.6762,-4.6919,-4.687,-4.7027,-4.7034,-4.7066,-4.7161,-4.7085,-4.7176,-4.7129,-4.7217,-4.7193,-4.7344,-4.7364,-4.7361,-4.7353,-4.7368,-4.7369,-4.7399,-4.738,-4.733,-4.7328,-4.7326,-4.7324,0,-4.6883,-4.6861,-4.7023,-4.7043,-4.7052,-4.7167,-4.7184,-4.7273,-4.7264,-4.7385,-4.7411,-4.7398,-4.7497,-4.7472,-4.758,-4.7564,-4.7754,-4.7723,-4.774,-4.7732,-4.7868,-4.7856,-4.8311,-4.8368,-4.7956,-4.796,-4.7963,0,-4.7085,-4.7192,-4.7224,-4.7282,-4.7306,-4.74,-4.7454,-4.741,-4.7469,-4.7525,-4.7608,-4.77,-4.7771,-4.7935,-4.7935,-4.8017,-4.7988,-4.8142,-4.8,-4.8012,-4.7991,-4.7985,-4.7995,-4.817,-4.8175,-4.8179,-4.8182,0,-4.7446,-4.7429,-4.7509,-4.7586,-4.7651,-4.771,-4.7761,-4.7813,-4.7773,-4.7843,-4.7943,-4.7999,-4.8109,-4.8202,-4.8278,-4.8297,-4.8234,-4.8226,-4.8262,-4.8279,-4.8284,-4.8283,-4.7817,-4.8216,-4.8213,-4.821,-4.8208,-4.8207,-4.7711,-4.7802,-4.7839,-4.793,-4.7964,-4.8014,-4.8098,-4.8099,-4.8182,-4.8268,-4.8237,-4.8352,-4.8392,-4.8487,-4.8516,-4.8605,-4.8547,-4.8599,-4.8612,-4.8625,-4.8642,-4.827,-4.8619,-4.8618,-4.8617,-4.8616,-4.8615,0,-4.8068,-4.8087,-4.8172,-4.8245,-4.8318,-4.8251,-4.8304,-4.8369,-4.8471,-4.8513,-4.8584,-4.87,-4.879,-4.8797,-4.8881,-4.8952,-4.8925,-4.8975,-4.897,-4.8976,-4.8689,-4.865,-4.8996,-4.8996,-4.8996,-4.8995,-4.8995,-4.8995,-4.8263,-4.8413,-4.8401,-4.8568,-4.8585,-4.8697,-4.8733,-4.8779,-4.8812,-4.8944,-4.9018,-4.9021,-4.905,-4.9136,-4.9215,-4.9215,-4.925,-4.9312,-4.9301,-4.9034,-4.8996,-4.896,-4.8923,-4.932,-4.932,-4.958,-4.9582,-4.9584]},{"header":{"parameterUnit":"m.s-1","parameterCategory":1,"la1":30.2991,"la2":30.254,"lo1":-89.0895,"lo2":-89.0444,"dy":0.0017,"dx":0.0017,"nx":28,"ny":28,"refTime":"2024-10-18T03:00:00:Z","depth":0,"parameterNumber":3,"parameterNumberName":"V-component_of_WINDS"},"data":[0,0,0,0,0,0,0,0,0,0,0,0,0,0,0,0,0,0,0,0,0,0,0,0,0,0,0,0,0,0,0,0,0,0,0,0,0,0,0,0,0,0,0,0,0,0,0,0,0,0,0,0,0,0,0,0,0,0,-2.6009,-2.6008,0,-2.5992,-2.5991,-2.5991,-2.5963,-2.5963,-2.5962,-2.5962,-2.5942,-2.5942,-2.5942,0,0,0,0,0,0,0,0,0,0,0,0,0,-2.6013,-2.6013,-2.6009,-2.6008,-2.6008,-2.5992,-2.5991,-2.5991,-2.5963,-2.5963,-2.5962,-2.5962,-2.5942,-2.5942,-2.5942,0,0,0,0,0,0,0,0,0,0,0,0,0,-2.6005,-2.6013,-2.6009,-2.5993,-2.5991,-2.5992,-2.5991,-2.5991,-2.5964,-2.5963,-2.5962,-2.5961,-2.5942,-2.5942,-2.5942,-2.5956,0,0,-2.5942,-2.5942,0,0,0,0,0,0,0,0,-2.6005,-2.6005,-2.5995,-2.5994,-2.5992,-2.5979,-2.5985,-2.5979,-2.5964,-2.5974,-2.5962,-2.5961,-2.5955,-2.5954,-2.5952,-2.5955,-2.5955,-2.5942,-2.5942,-2.5942,-2.5941,0,0,0,0,0,0,0,-2.6006,-2.6005,-2.6002,-2.5995,-2.5993,-2.5985,-2.5983,-2.5984,-2.5969,-2.5973,-2.5971,-2.5969,-2.5954,-2.5952,-2.5951,-2.5954,-2.5942,-2.5942,-2.5941,-2.5941,-2.5964,-2.5965,0,0,0,0,0,0,-2.6009,-2.6006,-2.6002,-2.6001,-2.5997,-2.5985,-2.5983,-2.5984,-2.5969,-2.5966,-2.597,-2.5968,-2.5953,-2.5951,-2.595,-2.5964,-2.5942,-2.5941,-2.5941,-2.5964,-2.5965,-2.5965,0,0,0,0,0,0,-2.601,-2.6009,-2.6003,-2.6003,-2.6002,-2.5986,-2.5987,-2.5984,-2.5982,-2.5966,-2.5963,-2.5972,-2.5952,-2.5951,-2.5954,-2.5963,-2.5941,-2.5941,-2.5963,-2.5964,-2.5965,-2.5992,0,0,0,0,0,0,-2.601,-2.601,-2.6016,-2.6003,-2.6002,-2.6009,-2.5988,-2.5984,-2.5982,-2.598,-2.5967,-2.5964,-2.5951,-2.5955,-2.5954,-2.5962,-2.5941,-2.5962,-2.5963,-2.5965,-2.5991,-2.5994,-2.5997,0,0,0,0,0,-2.601,-2.6025,-2.6017,-2.6017,-2.601,-2.6009,-2.6008,-2.5994,-2.5983,-2.5989,-2.5978,-2.5964,-2.5962,-2.5955,-2.5955,-2.5963,-2.5962,-2.5963,-2.5965,-2.5989,-2.5994,-2.5997,0,0,0,0,0,0,-2.6039,-2.6023,-2.6014,-2.6025,-2.6019,-2.6005,-2.6012,-2.6,-2.5996,-2.5993,-2.5975,-2.5972,-2.5977,-2.597,-2.5963,-2.5974,-2.5959,-2.5961,-2.5978,-2.5982,-2.5986,-2.5987,-2.5941,0,0,0,0,0,-2.6047,-2.6049,-2.6035,-2.6046,-2.6043,-2.6028,-2.6027,-2.6016,-2.6009,-2.6006,-2.5995,-2.5988,-2.5984,-2.5983,-2.598,-2.5989,-2.5985,-2.5994,-2.5998,-2.6,-2.6002,-2.6003,-2.6006,-2.597,-2.597,-2.597,0,0,-2.6064,-2.6055,-2.6057,-2.6052,-2.6045,-2.6046,-2.6026,-2.6029,-2.6028,-2.6006,-2.6008,-2.6,-2.599,-2.5996,-2.5998,-2.599,-2.601,-2.6002,-2.6005,-2.6004,-2.6005,-2.6008,-2.6011,-2.5971,-2.5971,-2.5971,0,0,-2.6093,-2.6088,-2.6095,-2.6089,-2.6079,-2.6069,-2.607,-2.6057,-2.6051,-2.6053,-2.6036,-2.6034,-2.6031,-2.6023,-2.6019,-2.6042,-2.6028,-2.6041,-2.6058,-2.6059,-2.6062,-2.6065,-2.6071,-2.6073,-2.6042,-2.6042,-2.6042,0,-2.6114,-2.6116,-2.6101,-2.6103,-2.61,-2.6079,-2.6085,-2.608,-2.607,-2.6067,-2.6058,-2.6051,-2.6043,-2.6045,-2.605,-2.6048,-2.6048,-2.6042,-2.6063,-2.6066,-2.6067,-2.6073,-2.6075,-2.6044,-2.6044,-2.6043,-2.6043,0,-2.6141,-2.6142,-2.6149,-2.6139,-2.6137,-2.6141,-2.6124,-2.6123,-2.6112,-2.6101,-2.6102,-2.6091,-2.6084,-2.6083,-2.6073,-2.6083,-2.6078,-2.6067,-2.6052,-2.6073,-2.6077,-2.608,-2.6046,-2.6045,-2.6045,-2.6045,0,0,-2.619,-2.617,-2.6172,-2.6166,-2.6153,-2.6153,-2.6155,-2.6148,-2.6146,-2.6139,-2.6138,-2.6134,-2.6122,-2.6117,-2.6105,-2.6107,-2.6122,-2.6095,-2.6094,-2.6099,-2.613,-2.6138,-2.6141,-2.6113,-2.6114,-2.6114,-2.613,0,-2.6215,-2.6219,-2.6204,-2.621,-2.6209,-2.6188,-2.619,-2.618,-2.617,-2.6166,-2.6154,-2.615,-2.6137,-2.6133,-2.6134,-2.612,-2.6128,-2.6119,-2.6111,-2.6111,-2.6113,-2.6144,-2.6153,-2.6169,-2.6132,-2.6132,-2.6133,0,-2.6246,-2.624,-2.6247,-2.623,-2.6229,-2.6231,-2.6221,-2.6219,-2.6207,-2.6199,-2.6192,-2.6177,-2.6175,-2.6161,-2.6157,-2.6152,-2.6147,-2.614,-2.614,-2.6138,-2.6123,-2.6141,-2.6174,-2.6176,-2.6136,-2.6136,-2.6135,0,-2.6279,-2.6272,-2.6274,-2.627,-2.6251,-2.6252,-2.6245,-2.6232,-2.6227,-2.6219,-2.6215,-2.6206,-2.6201,-2.6194,-2.6176,-2.6168,-2.6173,-2.6158,-2.6165,-2.6165,-2.6167,-2.6167,-2.6198,-2.6166,-2.6165,-2.6165,-2.6165,0,-2.6308,-2.6313,-2.6288,-2.629,-2.6293,-2.6274,-2.6277,-2.6267,-2.6255,-2.6252,-2.6234,-2.6231,-2.6209,-2.6203,-2.6189,-2.6186,-2.6185,-2.6177,-2.6173,-2.6178,-2.6178,-2.6174,-2.6172,-2.6166,-2.6166,-2.6166,-2.6166,0,-2.6345,-2.6329,-2.633,-2.6312,-2.6307,-2.631,-2.6293,-2.6292,-2.628,-2.6276,-2.6274,-2.6254,-2.6246,-2.6228,-2.6215,-2.6206,-2.6206,-2.62,-2.621,-2.6208,-2.6214,-2.6213,-2.6243,-2.6245,-2.6213,-2.6213,-2.6213,0,-2.6365,-2.6367,-2.6349,-2.6346,-2.6338,-2.6334,-2.6329,-2.631,-2.6305,-2.629,-2.629,-2.6281,-2.6272,-2.626,-2.6243,-2.6232,-2.6225,-2.6236,-2.6223,-2.6227,-2.6223,-2.6222,-2.6221,-2.6239,-2.6239,-2.6239,-2.624,0,-2.64,-2.6391,-2.6385,-2.6376,-2.6371,-2.6362,-2.6353,-2.6351,-2.6328,-2.6324,-2.6315,-2.6309,-2.6295,-2.6285,-2.6271,-2.6261,-2.6246,-2.6244,-2.6244,-2.6249,-2.6254,-2.625,-2.6216,-2.6243,-2.6243,-2.6242,-2.6242,-2.6242,-2.6427,-2.6427,-2.6414,-2.6407,-2.6397,-2.6388,-2.6386,-2.6372,-2.6365,-2.6353,-2.6341,-2.6333,-2.6318,-2.6298,-2.6288,-2.6281,-2.6273,-2.6275,-2.6275,-2.6275,-2.6276,-2.6256,-2.6278,-2.6278,-2.6278,-2.6278,-2.6278,0,-2.646,-2.6449,-2.6443,-2.643,-2.6424,-2.6411,-2.6399,-2.6394,-2.6387,-2.6375,-2.6366,-2.6355,-2.6344,-2.6326,-2.6313,-2.631,-2.6303,-2.6308,-2.6307,-2.6304,-2.6285,-2.6285,-2.6314,-2.6314,-2.6314,-2.6314,-2.6314,-2.6314,-2.6476,-2.6475,-2.6464,-2.6457,-2.6446,-2.6439,-2.6433,-2.6423,-2.6412,-2.6401,-2.6392,-2.638,-2.6364,-2.635,-2.6339,-2.6333,-2.6329,-2.6335,-2.6328,-2.631,-2.6306,-2.6303,-2.6303,-2.6335,-2.6335,-2.6348,-2.6348,-2.6348]}]]